Location: Buisson
(44.2787°N, 4.9969°E)
Time: 05:20:18
(UTC+00:00)

Daily predictions for brighter satellites

Satellite Brightness Start Highest point End
(mag) Time Altitude Azimuth Time Altitude Azimuth Time Altitude Azimuth
Cosmos 2154 Rocket 4.4 00:13:43 10° N 00:18:58 61° NNE 00:18:58 61° NNE
USA 281 3.7 00:23:57 52° NW 00:23:57 52° NW 00:28:56 10° NNW
Cosmos 2278 Rocket 4.3 00:30:56 17° E 00:30:56 17° E 00:33:40 10° ENE
Meteor 1-11 Rocket 4.4 00:27:36 10° N 00:32:10 54° N 00:32:10 54° N
Resurs 1-4 Rocket 3.6 00:31:03 10° NNE 00:34:31 29° ENE 00:34:31 29° ENE
Cosmos 2341 Rocket 4.5 00:32:41 10° N 00:38:40 56° ENE 00:38:40 56° ENE
CZ-2D R/B 3.5 00:35:13 10° NNE 00:39:14 33° ENE 00:39:14 33° ENE
Cosmos 1844 4.3 00:51:16 55° N 00:51:16 55° N 00:55:47 10° NNE
SL-8 Rocket 4.2 00:53:20 10° N 00:59:35 63° E 00:59:37 63° E
ATLAS 5 CENTAUR R/B 3.8 00:56:37 10° NNW 01:01:35 34° NE 01:07:19 10° ESE
Helios 1B rocket 4.5 00:59:14 10° NNE 01:01:12 26° NE 01:01:12 26° NE
NPP 4.2 01:08:17 10° NNE 01:12:59 52° ENE 01:12:59 52° ENE
ADEOS II 3.4 01:09:52 10° NNE 01:14:34 32° E 01:14:35 32° E
SJ 16-02 2.9 01:18:21 32° ENE 01:18:21 32° ENE 01:21:08 10° NNE
CZ-4C R/B 4.2 01:13:00 10° NNW 01:19:28 38° NE 01:26:55 10° ESE
Cosmos 1238 Rocket 3.9 01:15:33 10° N 01:21:50 82° E 01:22:04 80° ESE
SL-4 R/B 3.8 01:23:54 31° NNW 01:25:00 35° N 01:29:27 10° ENE
USA 234 3.2 01:21:18 10° NE 01:27:48 64° SE 01:28:00 63° SE
SL-16 R/B 2.4 01:30:59 81° W 01:30:59 81° W 01:37:12 10° NNW
Cosmos 2218 Rocket 3.8 01:25:16 10° N 01:31:28 90° E 01:31:33 88° SSE
Cosmos 1777 Rocket 4.4 01:36:53 57° NNW 01:36:53 57° NNW 01:41:18 10° NNE
Cosmos 864 Rocket 4.3 01:31:43 10° N 01:38:00 87° W 01:38:15 83° SSW
Cosmos 1844 Rocket 4.0 01:38:13 27° NW 01:38:18 27° NW 01:43:02 10° N
Cosmos 1959 Rocket 4.3 01:35:14 10° N 01:41:37 79° W 01:41:51 78° SW
Cosmos 158 Rocket 4.3 01:37:22 10° NNW 01:42:15 58° ENE 01:42:27 57° ENE
IDEFIX/ARIANE 42P 4.1 01:38:39 10° NE 01:43:08 28° E 01:44:40 24° ESE
Cosmos 2366 rocket 3.8 01:37:50 10° N 01:43:59 76° W 01:44:02 76° W
BREEZE-M R/B 3.7 01:44:25 58° NNW 01:44:31 58° NNW 01:51:51 10° ENE
Cosmos 2082 Rocket 3.2 01:44:12 10° NNW 01:49:35 44° ENE 01:54:56 10° SE
Cosmos 1821 Rocket 4.5 01:46:47 10° N 01:53:01 58° ENE 01:56:23 28° SSE
IRS-1D 3.6 01:54:28 10° NNE 01:59:37 67° ESE 02:00:12 62° SE
Cosmos 1833 Rocket 2.5 01:56:38 10° NNW 02:02:19 81° WSW 02:02:49 73° S
Gbstr 26 Del rocket 3.7 02:02:00 65° W 02:02:47 77° NNW 02:07:57 10° ENE
Nadezhda 3 Rocket 4.1 02:08:09 42° SSE 02:10:25 73° E 02:16:46 10° NNE
DELTA 2 R/B (1) 4.2 02:11:05 41° SSE 02:11:05 41° SSE 02:15:49 10° E
Meteor 1-28 Rocket 3.9 02:12:06 49° N 02:12:06 49° N 02:14:56 10° N
Cosmos 1908 Rocket 3.6 02:07:09 10° N 02:11:23 80° NNE 02:11:23 80° NNE
ARGOS Delta rocket 3.6 02:07:08 10° NNE 02:11:32 81° E 02:11:32 81° E
Cosmos 2278 Rocket 2.1 02:12:46 63° WSW 02:13:30 71° WNW 02:19:10 10° NNE
Cosmos 1975 3.9 02:09:52 10° NNW 02:12:24 36° NNW 02:12:24 36° NNW
Resurs 1-4 Rocket 2.9 02:10:48 10° N 02:15:33 35° WNW 02:15:35 35° WNW
CZ-2D R/B 3.0 02:15:17 10° N 02:20:13 35° WNW 02:20:34 34° WNW
Meteor 2-9 Rocket 4.5 02:19:53 10° NNW 02:25:29 49° W 02:25:53 48° WSW
COSMOS 2406 3.3 02:20:45 10° NW 02:26:08 51° WSW 02:26:08 51° WSW
NOSS 3-3 (A) 3.9 02:25:31 49° WSW 02:27:04 69° NW 02:33:39 10° NE
NOSS 3-3 (C) 3.9 02:25:37 49° WSW 02:27:11 70° NW 02:33:45 10° NE
Cosmos 1943 Rocket 3.8 02:24:37 15° SSE 02:28:20 29° ESE 02:33:08 10° NE
IRS-P3 4.5 02:23:24 10° NNE 02:28:43 61° ESE 02:31:08 32° S
ATLAS 2AS CENTAUR R/B 4.2 02:26:34 10° NNW 02:33:31 39° NE 02:39:57 10° ESE
Cosmos 1680 Rocket 3.4 02:28:24 10° NNW 02:33:44 87° WSW 02:37:45 18° SSE
IKONOS-2 4.5 02:34:21 63° W 02:34:21 63° W 02:38:28 10° NNW
Cosmos 1703 Rocket 3.4 02:36:16 64° W 02:36:28 65° W 02:40:48 10° N
CZ-4C R/B 3.5 02:37:48 60° W 02:37:48 60° W 02:42:11 10° NNW
Cosmos 1934 Rocket 4.2 02:31:42 10° N 02:38:02 72° E 02:44:13 10° SSE
Cosmos 1782 Rocket 3.5 02:35:29 10° N 02:39:59 87° WSW 02:41:25 43° S
CZ-4B R/B 3.5 02:36:08 10° NNE 02:40:53 68° ESE 02:42:59 33° S
Meteor 1-12 Rocket 4.5 02:35:47 10° N 02:41:51 78° E 02:47:48 10° SSE
Cosmos 2369 Rocket 4.4 02:38:00 10° SE 02:41:55 20° E 02:45:51 10° NE
Cosmos 2297 4.2 02:41:20 25° S 02:44:30 55° ESE 02:50:05 10° NNE
Cosmos 2084 4.1 02:44:26 36° SSE 02:45:31 45° ESE 02:49:34 10° NE
ATLAS 5 CENTAUR R/B 2.4 02:40:52 10° NW 02:46:31 57° WSW 02:53:06 10° SSE
Cosmos 1300 Rocket 4.4 02:45:31 10° N 02:49:51 50° ENE 02:54:10 10° SSE
Cosmos 1356 Rocket 4.2 02:46:17 10° N 02:50:18 51° ENE 02:54:21 10° SSE
MSX 3.8 02:47:01 10° NNE 02:52:48 84° ESE 02:56:27 24° SSW
Meteor 1-13 Rocket 4.2 02:50:55 27° S 02:54:14 87° W 03:00:00 10° N
ADEOS II 2.8 02:49:30 10° N 02:54:15 35° WNW 02:55:31 31° W
SJ 16-02 3.0 02:55:20 20° WNW 02:55:43 20° WNW 02:59:02 10° N
Cosmos 1605 Rocket 4.4 02:49:47 10° N 02:55:51 63° E 03:01:55 10° SSE
CZ-3B R/B 4.4 02:44:25 21° SSW 03:00:22 66° SE 03:05:56 10° ENE
Cosmos 923 Rocket 4.4 02:55:50 10° NW 03:00:38 38° WSW 03:01:44 34° SW
Cosmos 489 Rocket 4.4 02:58:32 10° NNW 03:04:47 89° WSW 03:11:00 10° SSE
SL-4 R/B 2.6 03:00:26 10° WNW 03:05:17 72° NNE 03:10:02 10° ESE
CZ-2D R/B 3.5 03:02:53 10° NNE 03:07:00 78° ESE 03:09:36 23° S
ADEOS Rocket 3.4 03:04:16 22° SSW 03:08:09 47° W 03:14:49 10° NNW
CZ-4C R/B 3.0 03:01:16 10° NW 03:08:36 70° WSW 03:17:00 10° SSE
Okean 1-7 3.9 03:08:27 29° W 03:08:58 30° WNW 03:12:47 10° NNW
USA 234 3.8 03:04:26 10° NE 03:10:41 49° NNW 03:15:21 18° W
Okean 3 3.7 03:12:29 33° SW 03:14:06 51° WNW 03:18:19 10° N
SL-16 R/B 4.3 03:16:03 13° W 03:16:03 13° W 03:18:05 10° WNW
Cosmos 1805 3.2 03:12:08 10° N 03:16:04 85° E 03:19:58 10° S
X-37B 0.9 03:16:28 41° SSW 03:17:09 52° SSE 03:20:16 10° E
Sich 1 Rocket 3.6 03:12:46 10° NNW 03:17:20 71° W 03:21:53 10° S
ARIANE 5 R/B 2.6 03:12:53 10° N 03:18:05 64° WNW 03:21:34 21° SSW
SL-08 R/B 3.4 03:13:42 10° S 03:18:33 57° W 03:23:21 10° NNW
Cosmos 1733 3.4 03:14:52 10° N 03:18:39 71° E 03:22:23 10° SSE
FALCON 9 DEB 3.5 03:15:45 11° NW 03:18:42 54° NNE 03:21:45 10° ESE
Cosmos 1937 Rocket 3.6 03:18:14 26° SW 03:21:00 55° WNW 03:26:04 10° NNE
COSMOS 2441 4.5 03:17:11 10° N 03:21:58 60° WNW 03:25:11 21° SSW
Cosmos 1898 Rocket 4.1 03:20:16 25° WSW 03:22:46 40° WNW 03:27:45 10° N
IDEFIX/ARIANE 42P 3.2 03:17:58 10° N 03:22:47 39° WNW 03:25:29 23° WSW
Cosmos 1378 3.8 03:22:12 30° WSW 03:23:06 35° WNW 03:26:32 10° N
Spot 4 Rocket 4.0 03:19:08 10° NNE 03:24:19 89° WNW 03:29:11 12° SSW
FALCON 9 DEB 2.9 03:25:57 10° NW 03:29:00 81° NNE 03:32:06 10° ESE
CREW DRAGON DEMO-1 DEB 4.4 03:31:18 16° WNW 03:32:42 23° NNW 03:34:59 10° NE
Cosmos 2082 Rocket 3.0 03:28:42 10° NW 03:33:26 29° WSW 03:38:10 10° SSW
Cosmos 1727 Rocket 4.2 03:27:55 10° S 03:34:05 75° E 03:40:22 10° N
IRAS Rocket 4.2 03:30:21 10° SSE 03:35:50 84° WSW 03:41:25 10° NNW
Cosmos 1378 Rocket 4.1 03:32:37 10° S 03:36:58 59° E 03:41:19 10° NNE
PAYLOAD A 3.9 03:34:40 10° NNE 03:39:52 85° WNW 03:44:49 10° SSW
CZ-2C R/B 2.3 03:36:41 10° NNE 03:41:27 89° WNW 03:46:21 10° SSW
FALCON 9 DEB 2.7 03:39:45 10° WNW 03:42:50 71° SW 03:45:54 10° SE
Meteor 1-15 Rocket 4.3 03:37:50 10° NNW 03:43:15 55° W 03:48:41 10° S
Milstar 3 4.4 03:40:43 14° SW 03:46:25 31° S 03:56:59 10° ESE
Cosmos 1674 Rocket 3.5 03:44:34 10° S 03:48:54 86° WNW 03:53:18 10° N
BREEZE-M DEB (TANK) 2.1 03:50:18 10° WNW 03:52:18 58° SW 03:56:16 10° SE
Cosmos 372 Rocket 4.2 03:47:54 13° SW 03:52:24 53° WNW 03:57:26 10° NNE
Meteor 2-20 4.4 03:47:26 10° SSW 03:53:33 79° W 03:59:46 10° N
Cosmos 1842 3.2 03:50:37 10° S 03:54:29 84° W 03:58:23 10° N
DELTA 2 R/B (1) 3.9 03:51:51 13° WSW 03:56:36 53° S 04:02:01 10° ESE
FALCON 9 DEB 2.8 03:55:27 10° WNW 03:58:30 61° SW 04:01:34 10° SE
GP-B 3.1 03:54:02 10° N 03:58:31 88° E 04:02:56 10° S
Cosmos 2278 Rocket 4.2 03:55:37 10° WNW 03:58:39 14° NW 04:01:43 10° N
Cosmos 1125 Rocket 4.0 03:54:00 10° S 03:59:13 62° ESE 04:04:26 10° NNE
Cosmos 2150 Rocket 4.1 04:02:13 10° SSW 04:07:42 87° WNW 04:13:10 10° NNE
SL-24 R/B 3.8 04:04:34 10° S 04:08:47 73° W 04:12:35 10° NNW
Meteor 2-10 4.3 04:03:58 10° N 04:09:44 87° W 04:15:19 10° S
NOSS 3-4 (A) 4.2 04:03:27 10° NW 04:10:13 46° WSW 04:17:37 10° S
NOSS 3-4 (C) 4.2 04:03:33 10° NW 04:10:19 46° WSW 04:17:45 10° S
OE (NEXTSAT) 4.3 04:07:02 11° WSW 04:10:22 83° NNW 04:13:50 10° ENE
Cosmos 1943 Rocket 2.7 04:06:26 10° SW 04:11:51 45° WNW 04:17:17 10° NNE
Cosmos 2151 Rocket 4.3 04:07:49 10° NNW 04:11:56 35° W 04:16:02 10° SSW
CZ-2C R/B 3.5 04:09:07 10° N 04:12:33 34° WNW 04:16:01 10° SW
Okean 2 Rocket 4.2 04:13:23 10° NW 04:16:56 24° W 04:20:28 10° SW
Cosmos 1484 Rocket 2.9 04:13:37 10° NNE 04:17:37 89° W 04:21:38 10° SSW
Cosmos 1726 2.1 04:17:24 10° N 04:21:08 87° W 04:24:52 10° S
CZ-4C R/B 2.9 04:18:24 10° S 04:21:56 81° W 04:25:25 10° NNW
PSLV R/B 3.8 04:18:55 10° N 04:23:02 49° WNW 04:27:05 10° SSW
ATLAS 2AS CENTAUR R/B 2.8 04:17:40 10° NW 04:24:47 57° WSW 04:31:20 10° SSE
Cosmos 1802 Rocket 4.1 04:18:39 10° N 04:24:59 88° E 04:31:10 10° S
Cosmos 2369 Rocket 2.3 04:19:52 10° SW 04:25:24 62° WNW 04:30:59 10° NNE
ALOS 2.4 04:21:00 10° N 04:25:37 60° WNW 04:30:11 10° SSW
DNEPR-1 R/B 4.3 04:21:54 10° SW 04:28:17 77° NW 04:33:30 10° NNE
